DEAGJ EDDV-EDVP

Flight info

Callsign DEAGJ
Flight time N/A
Altitude
Route
Aircraft C152

Departure

Time 2026-05-01 15:23
Airport Hannover Airport (EDDV)

Arrival

Time N/A
Airport Peine-Glindbruchkippe Airfield (EDVP)
Time Latitude Longitude Altitude Speed Heading
2026-05-01 15:18 52.45714 9.68565 177 ft 0 kts
2026-05-01 15:20 52.45789 9.68472 176 ft 13 kts 270°
2026-05-01 15:20 52.45762 9.68330 176 ft 15 kts 211°
2026-05-01 15:20 52.45670 9.68263 177 ft 14 kts 192°
2026-05-01 15:21 52.45578 9.68256 177 ft 4 kts 182°
2026-05-01 15:21 52.45577 9.68256 177 ft 0 kts 181°
2026-05-01 15:21 52.45544 9.68256 176 ft 18 kts 178°
2026-05-01 15:21 52.45478 9.68382 174 ft 23 kts 93°
2026-05-01 15:22 52.45413 9.69746 365 ft 72 kts 96°
2026-05-01 15:22 52.45340 9.70579 544 ft 75 kts 102°
2026-05-01 15:22 52.45049 9.71260 707 ft 78 kts 158°
2026-05-01 15:23 52.44520 9.71317 901 ft 74 kts 183°
2026-05-01 15:23 52.44004 9.71250 1078 ft 77 kts 188°
2026-05-01 15:23 52.43475 9.71143 1277 ft 76 kts 187°
2026-05-01 15:23 52.42957 9.71035 1478 ft 76 kts 182°
2026-05-01 15:24 52.42558 9.71510 1648 ft 81 kts 99°
2026-05-01 15:24 52.42496 9.72494 1743 ft 91 kts 99°
2026-05-01 15:24 52.42407 9.73507 1928 ft 89 kts 99°
2026-05-01 15:24 52.42342 9.74188 1982 ft 96 kts 101°
2026-05-01 15:25 52.42198 9.75262 2046 ft 95 kts 102°
2026-05-01 15:25 52.42186 9.76340 2074 ft 95 kts 83°
2026-05-01 15:25 52.42245 9.77412 2099 ft 95 kts 83°
2026-05-01 15:25 52.42366 9.78478 2117 ft 96 kts 77°
2026-05-01 15:26 52.42539 9.79523 2166 ft 92 kts 72°
2026-05-01 15:26 52.42668 9.80525 2244 ft 88 kts 90°
2026-05-01 15:26 52.42490 9.81487 2267 ft 92 kts 123°
2026-05-01 15:26 52.42083 9.82363 2220 ft 99 kts 132°
2026-05-01 15:27 52.41606 9.83216 2227 ft 104 kts 134°
2026-05-01 15:27 52.41120 9.84087 2237 ft 102 kts 133°
2026-05-01 15:27 52.40681 9.84998 2186 ft 103 kts 127°
2026-05-01 15:28 52.39996 9.87052 2130 ft 103 kts 111°
2026-05-01 15:28 52.39779 9.88169 2130 ft 103 kts 109°
2026-05-01 15:28 52.39563 9.89290 2134 ft 103 kts 107°
2026-05-01 15:29 52.39164 9.91542 2154 ft 103 kts 105°
2026-05-01 15:29 52.38994 9.92677 2160 ft 104 kts 104°
2026-05-01 15:29 52.38656 9.94951 2151 ft 103 kts 100°
2026-05-01 15:30 52.38471 9.96881 2193 ft 104 kts 100°
2026-05-01 15:31 52.37867 10.01877 2191 ft 104 kts 105°
2026-05-01 15:31 52.37374 10.04110 2194 ft 106 kts 116°
2026-05-01 15:32 52.36149 10.05595 1629 ft 114 kts 172°
2026-05-01 15:32 52.34753 10.05839 1303 ft 99 kts 175°
2026-05-01 15:33 52.33409 10.07863 785 ft 102 kts 129°
2026-05-01 15:34 52.32863 10.10236 332 ft 68 kts 102°